Location: Mason
(37.5237°N, 89.2543°W)
Time: 08:18:59
(UTC+00:00)

Cosmos 2279 Rocket - Pass Details

Date: 24 January 2021
Orbit: 963 x 979 km, 82.9° (Epoch: 08 March)

Event Time Altitude Azimuth Distance (km) Brightness Sun altitude
Rises 12:04:40 0° 181° (S) 3,652 7.2 -12.3°
Reaches altitude 10° 12:07:09 10° 180° (S) 2,711 6.5 -11.9°
Maximum altitude 12:13:22 79° 94° (E) 997 4.2 -10.7°
Drops below altitude 10° 12:19:38 10° 9° (N) 2,736 6.3 -9.5°
Sets 12:22:09 0° 9° (N) 3,689 6.9 -9.0°
